This is the latest recevied weather packets stored in our database for station/object NT9G. If no packets are shown the sender has not sent any weather packets the latest 1 day(s).
| Time | Temp. | Humidity | Pressure | Rain* | Wind** | Luminosity | Snow |
|---|---|---|---|---|---|---|---|
| 1778069221 | 7.22° C | 65% | 1014.9 hPa | 0 mm | - | - | - |
| 1778068320 | 7.22° C | 63% | 1014.4 hPa | 0 mm | - | - | - |
| 1778066217 | 6.11° C | 67% | 1013.7 hPa | 0 mm | - | - | - |
| 1778065616 | 6.67° C | 67% | 1013.6 hPa | 0 mm | - | - | - |
| 1778065316 | 6.67° C | 66% | 1013.7 hPa | 0 mm | - | - | - |
| 1778064415 | 6.67° C | 66% | 1013.6 hPa | 0 mm | - | - | - |
| 1778064115 | 6.67° C | 66% | 1013.5 hPa | 0 mm | - | - | - |
| 1778063213 | 6.67° C | 66% | 1013.4 hPa | 0 mm | - | - | - |
| 1778062612 | 6.67° C | 66% | 1013.4 hPa | 0 mm | - | - | - |
| 1778062312 | 6.67° C | 66% | 1013.4 hPa | 0 mm | - | - | - |
| 1778061712 | 6.67° C | 65% | 1013.4 hPa | 0 mm | - | - | - |
| 1778061411 | 6.67° C | 66% | 1013.2 hPa | 0 mm | - | - | - |
| 1778061111 | 6.67° C | 66% | 1013.2 hPa | 0 mm | - | - | - |
| 1778060510 | 6.67° C | 67% | 1013.2 hPa | 0 mm | - | - | - |
| 1778060210 | 6.67° C | 69% | 1013 hPa | 0 mm | - | - | - |
| 1778059309 | 6.67° C | 70% | 1012.8 hPa | 0 mm | - | - | - |
| 1778059009 | 6.67° C | 70% | 1012.8 hPa | 0 mm | - | - | - |
| 1778058408 | 6.67° C | 70% | 1012.9 hPa | 0 mm | - | - | - |
| 1778058108 | 6.67° C | 70% | 1012.9 hPa | 0 mm | - | - | - |
| 1778057207 | 6.67° C | 70% | 1012.9 hPa | 0 mm | - | - | - |
| 1778056907 | 6.67° C | 70% | 1012.9 hPa | 0 mm | - | - | - |
| 1778056306 | 7.22° C | 68% | 1012.8 hPa | 0 mm | - | - | - |
| 1778056006 | 7.22° C | 68% | 1012.8 hPa | 0 mm | - | - | - |
| 1778055105 | 6.67° C | 68% | 1012.6 hPa | 0 mm | - | - | - |
| 1778053904 | 6.67° C | 66% | 1012.4 hPa | 0 mm | - | - | - |
* Rain since midnight (hover to see other rain measurements)
** Current wind speed in m/s (hover to see current wind gust speed)